Hill City, KS

9:39 AM CDT on April 29, 2017 (GMT -0500)
Hill City Municipal

Weather History for KHLC - June, 2013

Change the Weather History Date:

Monday, June 10, 2013

  Actual Average Record
Temperature  
Mean Temperature 78 °F 71 °F  
Max Temperature 103 °F 84 °F 109 °F (1933)
Min Temperature 53 °F 58 °F 39 °F (1931)
Cooling Degree Days 13    
Growing Degree Days 28 (Base 50)    
Moisture  
Dew Point 56 °F    
Average Humidity 47    
Maximum Humidity 83    
Minimum Humidity 26    
Precipitation  
Precipitation 0.00 in 0.09 in 0.96 in (2005)
Month to date precipitation 1.13 1.03  
Year to date precipitation 5.47 9.53  
Sea Level Pressure  
Sea Level Pressure 29.74 in    
Wind  
Wind Speed 7 mph (SE)    
Max Wind Speed 17 mph    
Max Gust Speed 22 mph    
Visibility 10 miles    
Events Thunderstorm    
T = Trace of Precipitation, MM = Missing Value Source: NWS Daily Summary

Daily Weather History Graph

Daily Weather History Graph

Search for Another Location

Airport or City:

Trip Planner

Search our weather history database for the weather conditions in past years. The results will help you decide how hot, cold, wet, or windy it might be!

Date:

Astronomy

Jun. 10, 2013 Rise Set
Actual Time 6:12 AM CDT 9:05 PM CDT
Civil Twilight 5:39 AM CDT 9:38 PM CDT
Nautical Twilight 4:59 AM CDT 10:18 PM CDT
Astronomical Twilight 4:12 AM CDT 11:05 PM CDT
Moon 8:01 AM CDT (6/10) 10:34 PM CDT (6/10)
Length of Visible Light 15h 58m
Length of Day
14h 53m
Waxing Crescent, 4% of the Moon is Illuminated
Jun 10
Waxing Crescent
Jun 16
First Quarter
Jun 23
Full
Jun 29
Last Quarter
Jul 8
New

Hourly Weather History & Observations

Time (CDT) Temp. Heat Index Dew Point Humidity Pressure Visibility Wind Dir Wind Speed Gust Speed Precip Events Conditions
12:53 AM 57.0 °F - 51.1 °F 81% 29.88 in 10.0 mi Calm Calm - N/A   Clear
1:53 AM 57.0 °F - 50.0 °F 77% 29.87 in 10.0 mi Calm Calm - N/A   Clear
2:53 AM 62.1 °F - 48.9 °F 62% 29.84 in 10.0 mi ESE 3.5 mph - N/A   Clear
3:53 AM 59.0 °F - 48.9 °F 69% 29.83 in 10.0 mi East 4.6 mph - N/A   Clear
4:53 AM 55.9 °F - 48.9 °F 77% 29.83 in 10.0 mi ENE 5.8 mph - N/A   Clear
5:53 AM 54.0 °F - 48.9 °F 83% 29.83 in 10.0 mi East 4.6 mph - N/A   Clear
6:53 AM 55.9 °F - 50.0 °F 80% 29.83 in 10.0 mi ENE 4.6 mph - N/A   Clear
7:53 AM 62.1 °F - 52.0 °F 70% 29.82 in 10.0 mi East 5.8 mph - N/A   Clear
8:53 AM 72.0 °F - 52.0 °F 49% 29.81 in 10.0 mi SE 12.7 mph 19.6 mph N/A   Clear
9:53 AM 77.0 °F - 53.1 °F 43% 29.80 in 10.0 mi SSE 13.8 mph - N/A   Clear
10:53 AM 82.0 °F 81.6 °F 55.9 °F 41% 29.77 in 10.0 mi South 11.5 mph - N/A   Clear
11:53 AM 87.1 °F 86.1 °F 57.9 °F 37% 29.78 in 10.0 mi Variable 6.9 mph - N/A   Clear
12:53 PM 91.9 °F 91.5 °F 60.1 °F 34% 29.75 in 10.0 mi SE 10.4 mph - N/A   Clear
1:53 PM 96.1 °F 96.0 °F 60.1 °F 30% 29.72 in 10.0 mi SE 13.8 mph 18.4 mph N/A   Clear
2:53 PM 99.0 °F 99.5 °F 60.1 °F 28% 29.70 in 10.0 mi SSE 10.4 mph - N/A   Clear
3:53 PM 100.9 °F 101.6 °F 60.1 °F 26% 29.68 in 10.0 mi SE 11.5 mph - N/A   Clear
4:53 PM 102.0 °F 103.3 °F 61.0 °F 26% 29.66 in 10.0 mi East 13.8 mph - N/A   Clear
5:53 PM 102.0 °F 105.9 °F 64.9 °F 30% 29.65 in 10.0 mi East 17.3 mph 21.9 mph N/A   Clear
6:53 PM 99.0 °F 104.2 °F 68.0 °F 36% 29.62 in 10.0 mi ENE 9.2 mph - N/A   Clear
7:53 PM 98.1 °F 100.7 °F 64.0 °F 33% 29.62 in 10.0 mi ENE 6.9 mph - N/A   Clear
8:53 PM 91.9 °F 90.0 °F 55.0 °F 29% 29.62 in 10.0 mi South 10.4 mph - N/A   Clear
9:53 PM 90.0 °F 88.1 °F 55.9 °F 31% 29.62 in 10.0 mi South 11.5 mph - N/A   Clear
10:53 PM 88.0 °F 87.1 °F 59.0 °F 37% 29.64 in 10.0 mi South 13.8 mph - N/A   Clear
11:37 PM 86.0 °F 84.9 °F 57.2 °F 37% 29.73 in 10.0 mi South 13.8 mph 21.9 mph N/A Thunderstorm Clear
11:53 PM 84.9 °F 84.2 °F 57.9 °F 40% 29.65 in 10.0 mi South 11.5 mph - N/A   Clear